• MPC Preparation (Info)

  • MPEC 2006-O13 : 2006 OF2

    The following Minor Planet Electronic Circular may be linked-to from your own Web pages, but must not otherwise be redistributed electronically.

    A form allowing access to any MPEC is at the bottom of this page.


    Read MPEC 2006-O12 Read MPEC 2006-O14


    M.P.E.C. 2006-O13                                Issued 2006 July 21, 20:51 UT
    
         The Minor Planet Electronic Circulars contain information on unusual
             minor planets and routine data on comets.  They are published
       on behalf of Commission 20 of the International Astronomical Union by the
              Minor Planet Center, Smithsonian Astrophysical Observatory,
                              Cambridge, MA 02138, U.S.A.
    
                      Supported in part by the Brinson Foundation
                      Supported in part by the TABASGO Foundation
                 Prepared using the Tamkin Foundation Computer Network
    
                                  MPC@CFA.HARVARD.EDU
              URL http://cfa-www.harvard.edu/iau/mpc.html  ISSN 1523-6714
    
                                       2006 OF2
    
    Observations:
         K06O02F  C2006 06 23.38579 20 53 34.90 -27 15 34.1          19.8 R EO013644
         K06O02F  C2006 06 23.39658 20 53 34.69 -27 15 34.9          19.3 R EO013644
         K06O02F  C2006 06 23.41375 20 53 34.35 -27 15 35.7          20.0 R EO013644
         K06O02F* C2006 07 17.65728 20 43 51.49 -27 37 11.2          18.2 V EO013428
         K06O02F  C2006 07 17.68242 20 43 50.78 -27 37 12.3          18.1 V EO013428
         K06O02F  C2006 07 18.65118 20 43 23.38 -27 37 56.7          18.1 V EO013428
         K06O02F  C2006 07 18.67632 20 43 22.65 -27 37 57.3          18.0 V EO013428
         K06O02F  C2006 07 19.57365 20 42 57.16 -27 38 38.3          18.2 V EO013428
         K06O02F  C2006 07 19.60988 20 42 56.19 -27 38 39.9          18.0 V EO013428
         K06O02F  C2006 07 19.61231 20 42 56.11 -27 38 39.7          18.2 V EO013428
         K06O02F  C2006 07 20.01851 20 42 44.47 -27 38 59.2          18.5 R EO013J87
         K06O02F  C2006 07 20.02500 20 42 44.30 -27 38 59.3          18.5 R EO013J87
         K06O02F  C2006 07 20.03150 20 42 44.08 -27 38 59.6          18.4 R EO013J87
         K06O02F  C2006 07 20.23296 20 42 38.25 -27 39 06.5          17.7 R EO013844
         K06O02F  C2006 07 20.24390 20 42 37.94 -27 39 06.7          17.5 R EO013844
         K06O02F  C2006 07 20.25388 20 42 37.62 -27 39 06.8          17.5 R EO013844
         K06O02F  C2006 07 20.26384 20 42 37.37 -27 39 07.4          17.7 R EO013844
         K06O02F  C2006 07 20.28147 20 42 37.02 -27 39 09.9          18.5 R EO013734
         K06O02F  C2006 07 20.28375 20 42 36.78 -27 39 09.2          17.3 R EO013844
         K06O02F  C2006 07 20.30145 20 42 36.37 -27 39 10.8          18.3 R EO013734
         K06O02F  C2006 07 20.30583 20 42 36.26 -27 39 11.7          18.3 R EO013734
         K06O02F  C2006 07 20.38150 20 42 34.08 -27 39 13.6          18.2 V EO013F84
         K06O02F  C2006 07 20.42262 20 42 32.88 -27 39 15.4          18.4 V EO013F84
         K06O02F  C2006 07 20.46080 20 42 31.76 -27 39 17.0          18.5 V EO013F84
         K06O02F  C2006 07 20.55168 20 42 29.20 -27 39 21.3          18.4 V EO013428
         K06O02F  C2006 07 20.56331 20 42 28.84 -27 39 21.6          18.4 V EO013428
         K06O02F  C2006 07 20.59054 20 42 28.03 -27 39 22.7          18.5 V EO013428
         K06O02F  C2006 07 21.01154 20 42 15.99 -27 39 40.2          18.2 R EO013I77
         K06O02F  C2006 07 21.18411 20 42 10.92 -27 39 47.7          18.5 R EO013I77
         K06O02F  C2006 07 21.19107 20 42 10.81 -27 39 49.4          18.5 R EO013734
         K06O02F  C2006 07 21.19839 20 42 10.59 -27 39 49.3          18.5 R EO013734
         K06O02F  C2006 07 21.20572 20 42 10.33 -27 39 49.4          18.8 R EO013734
         K06O02F  C2006 07 21.33432 20 42 06.56 -27 39 55.5          18.4 V EO013G96
         K06O02F  C2006 07 21.33556 20 42 06.53 -27 39 55.3          18.4 V EO013G96
         K06O02F  C2006 07 21.33679 20 42 06.50 -27 39 55.5          18.4 V EO013G96
         K06O02F  C2006 07 21.33802 20 42 06.46 -27 39 55.5          18.4 V EO013G96
         K06O02F  C2006 07 21.34948 20 42 06.13 -27 39 55.4          18.0 R EO013854
         K06O02F  C2006 07 21.35902 20 42 05.89 -27 39 56.1          17.9 R EO013854
         K06O02F  C2006 07 21.36866 20 42 05.53 -27 39 55.9          17.9 R EO013854
         K06O02F  C2006 07 21.60966 20 41 58.60 -27 40 05.5          17.9 R EO013423
         K06O02F  C2006 07 21.62870 20 41 58.01 -27 40 06.2          17.4 R EO013423
         K06O02F  C2006 07 21.64057 20 41 57.72 -27 40 06.7          18.6 V EO013E12
         K06O02F  C2006 07 21.64494 20 41 57.51 -27 40 08.2          18.7 V EO013E12
         K06O02F  C2006 07 21.64713 20 41 57.55 -27 40 08.0          18.4 V EO013E12
    
    Observer details:
    423 North Ryde.  Observer S. G. McAndrew.  0.20-m f/4 hyperbolic astrograph
        + CCD.
    428 Reedy Creek.  Observer J. Broughton.  0.51-m f/2.7 reflector + CCD.
    644 Palomar Mountain/NEAT.  Observers M. Brown, R. Bambery, K. Lawrence,
        M. Hicks, E. Helin, R. Thicksten.  1.2-m Schmidt + CCD.
    734 Farpoint Observatory.  Observers G. Hug, D. Tibbets.  0.7-m reflector
        + CCD.
    844 Los Molinos.  Observer S. Bruzzone.  0.46-m f/2.8 reflector + CCD.
    854 Sabino Canyon Observatory, Tucson.  Observer J. E. McGaha.  0.36-m f/10.0
        Schmidt-Cassegrain + CCD.
    E12 Siding Spring Survey.  Observer R. H. McNaught.  Measurers E. C. Beshore,
        E. J. Christensen, G. J. Garradd, A. R. Gibbs, A. D. Grauer, R. E. Hill,
        R. A. Kowalski, S. M. Larson, R. H. McNaught.  0.5-m Uppsala Schmidt + CCD.
    F84 Hibiscus Observatory, Punaauia.  Observers N. Teamo, S. F. Hoenig.
        Measurer S. F. Hoenig.  0.35-m f/3.88 Schmidt-Cassegrain + 1392x1040 CCD.
    G96 Mt. Lemmon Survey.  Observer E. J. Christensen.  Measurers E. C. Beshore,
        E. J. Christensen, G. J. Garradd, A. R. Gibbs, A. D. Grauer, R. E. Hill,
        R. A. Kowalski, S. M. Larson, R. H. McNaught.  1.5-m reflector + CCD.
    I77 CEAMIG-REA Observatory, Belo Horizonte.  Observers C. Jacques, E. Pimentel.
        Measurer C. Jacques.  0.30-m f/3.0 Schmidt-Cassegrain + CCD.
    J87 La Canada.  Observer J. Lacruz.  0.30-m Schmidt-Cassegrain + CCD.
    
    Orbital elements:
    2006 OF2
    Epoch 2006 Sept. 22.0 TT = JDT 2454000.5                MPC
    M 359.38273              (2000.0)            P               Q
    n   0.00083703     Peri.   95.49714     +0.49798753     -0.80265709
    a 111.5084268      Node   318.69967     +0.45630956     +0.56442674
    e   0.9777480      Incl.   29.82473     +0.73742119     +0.19277980
    P  1180            H    9.7           G   0.15
    Residuals in seconds of arc
    060623 644  0.0   0.1+    060720 844  0.8-  0.9+    060721 734  0.5+  0.2+
    060623 644  0.0   0.1-    060720 844  0.3-  0.7+    060721 734  0.1-  0.4+
    060623 644  0.0   0.0     060720 734  1.2+  0.4+    060721 G96  0.2-  0.2-
    060717 428  0.3+  0.2-    060720 844  0.4-  0.3-    060721 G96  0.2-  0.0
    060717 428  0.4+  0.2-    060720 734  0.3+  0.3+    060721 G96  0.1-  0.1-
    060718 428  0.5-  0.1-    060720 734  0.6+  0.4-    060721 G96  0.1-  0.1-
    060718 428  0.5-  0.4+    060720 F84  0.1-  0.0     060721 854  0.0   0.5+
    060719 428  0.6-  0.3-    060720 F84  0.0   0.0     060721 854  0.5+  0.2+
    060719 428  0.5+  0.3-    060720 F84  0.0   0.1+    060721 854  0.5-  0.8+
    060719 428  0.4+  0.0     060720 428  0.2+  0.6-    060721 423  0.1-  0.0
    060720 J87  0.1-  0.4-    060720 428  0.0   0.4-    060721 423  0.4-  0.1+
    060720 J87  0.2+  0.2-    060720 428  0.2-  0.3-    060721 E12  0.3+  0.2+
    060720 J87  0.2-  0.2-    060721 I77  0.2+  0.2+    060721 E12  0.7-  1.2-
    060720 844  0.5-  0.3+    060721 I77  0.2+  0.2+    060721 E12  0.6+  0.9-
    060720 844  0.4-  0.5+    060721 734  0.6+  0.2-
    
    Ephemeris:
    2006 OF2                 a,e,i = 111.51, 0.98, 30                q = 2.4813
    Date    TT    R. A. (2000) Decl.     Delta      r     Elong.  Phase     V
    2006 07 14    20 45.54   -27 34.2    6.736    7.711   162.4     2.3    18.5
    2006 07 24    20 40.81   -27 41.7    6.638    7.640   169.9     1.3    18.4
    2006 08 03    20 35.82   -27 46.7    6.570    7.569   169.2     1.4    18.4
    2006 08 13    20 30.83   -27 48.5    6.532    7.498   161.1     2.5    18.4
    2006 08 23    20 26.07   -27 46.5    6.524    7.427   151.4     3.7    18.5
    2006 09 02    20 21.81   -27 40.4    6.542    7.356   141.2     4.9    18.5
    2006 09 12    20 18.25   -27 30.1    6.584    7.284   131.0     6.0    18.6
    2006 09 22    20 15.55   -27 15.9    6.645    7.213   120.9     6.9    18.6
    2006 10 02    20 13.84   -26 58.0    6.722    7.141   110.9     7.5    18.6
    2006 10 12    20 13.17   -26 36.9    6.809    7.069   101.1     8.0    18.7
    2006 10 22    20 13.57   -26 12.8    6.901    6.997    91.4     8.2    18.7
    2006 11 01    20 15.01   -25 46.0    6.994    6.924    81.9     8.2    18.7
    2006 11 11    20 17.44   -25 16.8    7.083    6.852    72.6     7.9    18.7
    2006 11 21    20 20.77   -24 45.5    7.164    6.779    63.4     7.5    18.7
    
    Kyle E. Smalley              (C) Copyright 2006 MPC           M.P.E.C. 2006-O13
    

    Read MPEC 2006-O12 Read MPEC 2006-O14


    MPEC number:

    Enter an MPEC number in one of the following forms:

    • 1997-B01 (the full form)
    • J97B01 (the packed version of the full form)
    • B01 (the abbreviated form)